FENGYUN 4B

Last updated on Thu Nov 21 2024 00:02:44 GMT+0000 (Coordinated Universal Time)

1 48808U 21047A 24325.50636809 -.00000329 00000+0 00000+0 0 9998 2 48808 0.0797 286.0751 0008248 131.4127 289.4842 1.00269419 12814
UTC large
Height (km)
Speed (km/s)
/
Latitude / Longitude
Inclination (degrees)
Orbital Period (minutes)
Azimuth
Elevation
Range (km)
Doppler Factor

Next 0 passes for location: London (51.5072 / 0.1276)

Sorry there are no passes over London.